CAL126 RCKH-RJAA

Flight info

Callsign CAL126
Flight time 3h 6m
Altitude 39000
Route HCN1B HCN J7 PICHU Q13 IGURU Y57 YULIA Y89 GUPER Y81 RUTAS
Aircraft B738/M-SDE1FGHILORVWXY/HB1

Departure

Time 2026-04-23 11:30
Airport Kaohsiung International Airport (RCKH)

Arrival

Time 2026-04-23 14:37
Airport Narita International Airport (RJAA)
Time Latitude Longitude Altitude Speed Heading
2026-04-23 11:06 22.57270 120.33968 41 ft 0 kts 271°
2026-04-23 11:20 22.57270 120.33969 41 ft 2 kts 271°
2026-04-23 11:20 22.57270 120.33996 41 ft 4 kts 271°
2026-04-23 11:20 22.57270 120.34025 41 ft 4 kts 262°
2026-04-23 11:20 22.57278 120.34048 41 ft 4 kts 209°
2026-04-23 11:21 22.57299 120.34051 38 ft 4 kts 181°
2026-04-23 11:21 22.57326 120.34052 41 ft 4 kts 181°
2026-04-23 11:21 22.57354 120.34052 41 ft 4 kts 181°
2026-04-23 11:21 22.57379 120.34055 40 ft 4 kts 197°
2026-04-23 11:22 22.57400 120.34068 41 ft 4 kts 233°
2026-04-23 11:22 22.57408 120.34093 41 ft 3 kts 271°
2026-04-23 11:22 22.57408 120.34121 41 ft 4 kts 272°
2026-04-23 11:22 22.57407 120.34150 41 ft 4 kts 272°
2026-04-23 11:23 22.57406 120.34179 41 ft 4 kts 272°
2026-04-23 11:23 22.57405 120.34189 41 ft 1 kts 272°
2026-04-23 11:25 22.57406 120.34176 41 ft 7 kts 271°
2026-04-23 11:26 22.57419 120.34125 38 ft 8 kts 324°
2026-04-23 11:26 22.57497 120.34122 39 ft 14 kts
2026-04-23 11:26 22.57571 120.34165 41 ft 10 kts 87°
2026-04-23 11:26 22.57563 120.34249 41 ft 13 kts 93°
2026-04-23 11:27 22.57560 120.34364 41 ft 17 kts 92°
2026-04-23 11:27 22.57555 120.34498 41 ft 19 kts 91°
2026-04-23 11:27 22.57551 120.34652 41 ft 21 kts 91°
2026-04-23 11:27 22.57545 120.34820 41 ft 23 kts 92°
2026-04-23 11:28 22.57540 120.34995 40 ft 24 kts 91°
2026-04-23 11:28 22.57534 120.35187 40 ft 26 kts 92°
2026-04-23 11:28 22.57528 120.35380 40 ft 25 kts 92°
2026-04-23 11:28 22.57523 120.35564 40 ft 24 kts 92°
2026-04-23 11:29 22.57517 120.35739 40 ft 24 kts 91°
2026-04-23 11:29 22.57521 120.35887 41 ft 13 kts 62°
2026-04-23 11:29 22.57583 120.35913 41 ft 11 kts
2026-04-23 11:29 22.57655 120.35904 40 ft 10 kts 322°
2026-04-23 11:30 22.57684 120.35787 42 ft 44 kts 273°
2026-04-23 11:30 22.57704 120.35106 40 ft 134 kts 271°
2026-04-23 11:30 22.57722 120.33863 296 ft 189 kts 272°
2026-04-23 11:30 22.57761 120.32304 1017 ft 227 kts 272°
2026-04-23 11:31 22.57805 120.30509 1997 ft 249 kts 272°
2026-04-23 11:31 22.57852 120.28605 3155 ft 253 kts 274°
2026-04-23 11:31 22.57914 120.26727 4633 ft 248 kts 272°
2026-04-23 11:31 22.57680 120.24869 5820 ft 255 kts 249°
2026-04-23 11:32 22.56686 120.23255 6942 ft 264 kts 230°
2026-04-23 11:32 22.55419 120.21785 7993 ft 269 kts 230°
2026-04-23 11:32 22.54130 120.20293 9025 ft 274 kts 229°
2026-04-23 11:32 22.52568 120.19077 10028 ft 283 kts 205°
2026-04-23 11:33 22.50578 120.18689 10819 ft 304 kts 182°
2026-04-23 11:33 22.48420 120.18990 11522 ft 319 kts 176°
2026-04-23 11:33 22.46178 120.19285 12249 ft 330 kts 177°
2026-04-23 11:33 22.43869 120.19583 13027 ft 338 kts 176°
2026-04-23 11:34 22.41518 120.19889 13892 ft 342 kts 176°
2026-04-23 11:34 22.39169 120.20399 14711 ft 351 kts 161°
2026-04-23 11:34 22.37138 120.21903 15548 ft 363 kts 135°
2026-04-23 11:34 22.35812 120.24250 16310 ft 374 kts 112°
2026-04-23 11:35 22.35066 120.26963 17006 ft 379 kts 113°
2026-04-23 11:35 22.33962 120.29549 17703 ft 381 kts 118°
2026-04-23 11:35 22.32876 120.32138 18349 ft 386 kts 117°
2026-04-23 11:35 22.31800 120.34806 18998 ft 390 kts 116°
2026-04-23 11:36 22.30727 120.37511 19586 ft 394 kts 116°
2026-04-23 11:36 22.29652 120.40250 20188 ft 398 kts 116°
2026-04-23 11:36 22.28571 120.43021 20753 ft 402 kts 116°
2026-04-23 11:36 22.27482 120.45820 21306 ft 406 kts 116°
2026-04-23 11:37 22.26380 120.48651 21842 ft 410 kts 116°
2026-04-23 11:37 22.25271 120.51498 22370 ft 414 kts 116°
2026-04-23 11:37 22.24149 120.54378 22883 ft 418 kts 116°
2026-04-23 11:37 22.23019 120.57277 23369 ft 421 kts 116°
2026-04-23 11:38 22.21878 120.60204 23846 ft 425 kts 116°
2026-04-23 11:38 22.20726 120.63158 24308 ft 428 kts 116°
2026-04-23 11:38 22.19564 120.66134 24769 ft 432 kts 116°
2026-04-23 11:38 22.18393 120.69133 25208 ft 435 kts 116°
2026-04-23 11:39 22.17212 120.72153 25665 ft 438 kts 116°
2026-04-23 11:39 22.16024 120.75190 26104 ft 442 kts 116°
2026-04-23 11:39 22.14824 120.78257 26525 ft 445 kts 116°
2026-04-23 11:39 22.13615 120.81345 26943 ft 449 kts 115°
2026-04-23 11:40 22.12396 120.84457 27338 ft 452 kts 115°
2026-04-23 11:40 22.11164 120.87596 27692 ft 456 kts 115°
2026-04-23 11:40 22.09926 120.90754 28092 ft 458 kts 115°
2026-04-23 11:40 22.08681 120.93926 28460 ft 461 kts 115°
2026-04-23 11:41 22.07428 120.97116 28818 ft 463 kts 115°
2026-04-23 11:41 22.06164 121.00334 29139 ft 467 kts 115°
2026-04-23 11:41 22.04893 121.03567 29516 ft 469 kts 115°
2026-04-23 11:41 22.03615 121.06815 29846 ft 473 kts 115°
2026-04-23 11:42 22.02328 121.10092 30165 ft 476 kts 114°
2026-04-23 11:42 22.01395 121.13524 30497 ft 481 kts 99°
2026-04-23 11:42 22.01257 121.17122 30839 ft 483 kts 84°
2026-04-23 11:42 22.01902 121.20671 31135 ft 484 kts 70°
2026-04-23 11:43 22.03288 121.23964 31426 ft 483 kts 55°
2026-04-23 11:43 22.05261 121.26890 31696 ft 484 kts 50°
2026-04-23 11:43 22.07325 121.29771 31970 ft 487 kts 49°
2026-04-23 11:43 22.09425 121.32644 32305 ft 488 kts 49°
2026-04-23 11:44 22.11545 121.35511 32613 ft 490 kts 49°
2026-04-23 11:44 22.13682 121.38383 32921 ft 492 kts 49°
2026-04-23 11:44 22.15828 121.41266 33215 ft 494 kts 49°
2026-04-23 11:44 22.17988 121.44169 33486 ft 497 kts 49°
2026-04-23 11:45 22.20153 121.47083 33756 ft 499 kts 49°
2026-04-23 11:45 22.22328 121.50008 34040 ft 501 kts 49°
2026-04-23 11:45 22.24478 121.52904 34391 ft 501 kts 49°
2026-04-23 11:45 22.26654 121.55836 34796 ft 499 kts 49°
2026-04-23 11:46 22.28822 121.58756 35212 ft 498 kts 48°
2026-04-23 11:46 22.30981 121.61669 35609 ft 496 kts 48°
2026-04-23 11:46 22.33139 121.64581 35982 ft 495 kts 48°
2026-04-23 11:46 22.35286 121.67480 36322 ft 495 kts 47°
2026-04-23 11:47 22.37438 121.70383 36642 ft 494 kts 47°
2026-04-23 11:47 22.39580 121.73275 36972 ft 493 kts 47°
2026-04-23 11:47 22.41719 121.76164 37349 ft 490 kts 47°
2026-04-23 11:47 22.43839 121.79031 37755 ft 487 kts 47°
2026-04-23 11:48 22.45946 121.81881 38123 ft 484 kts 46°
2026-04-23 11:48 22.48043 121.84717 38432 ft 482 kts 46°
2026-04-23 11:48 22.50134 121.87549 38643 ft 482 kts 46°
2026-04-23 11:48 22.52226 121.90382 38840 ft 482 kts 46°
2026-04-23 11:49 22.54318 121.93218 38868 ft 482 kts 46°
2026-04-23 11:49 22.58492 121.98881 38852 ft 480 kts 46°
2026-04-23 11:50 22.62656 122.04535 38861 ft 480 kts 46°
2026-04-23 11:50 22.66788 122.10151 38859 ft 480 kts 46°
2026-04-23 11:51 22.70951 122.15817 38861 ft 481 kts 46°
2026-04-23 11:51 22.75119 122.21496 38860 ft 482 kts 46°
2026-04-23 11:52 22.79284 122.27175 38858 ft 482 kts 46°
2026-04-23 11:52 22.83457 122.32872 38862 ft 483 kts 46°
2026-04-23 11:53 22.87637 122.38586 38862 ft 483 kts 46°
2026-04-23 11:53 22.91814 122.44303 38860 ft 484 kts 46°
2026-04-23 11:54 22.95998 122.50032 38859 ft 485 kts 46°
2026-04-23 11:54 23.00180 122.55767 38860 ft 485 kts 46°
2026-04-23 11:55 23.04368 122.61517 38855 ft 486 kts 46°
2026-04-23 11:55 23.07849 122.66301 38851 ft 486 kts 46°
2026-04-23 11:56 23.12036 122.72062 38850 ft 486 kts 46°
2026-04-23 11:56 23.16225 122.77830 38850 ft 487 kts 46°
2026-04-23 11:57 23.20421 122.83616 38851 ft 487 kts 46°
2026-04-23 11:57 23.24613 122.89402 38850 ft 487 kts 46°
2026-04-23 11:58 23.28805 122.95193 38850 ft 488 kts 46°
2026-04-23 11:58 23.32897 123.01092 38835 ft 491 kts 51°
2026-04-23 11:59 23.36730 123.07235 38833 ft 491 kts 50°
2026-04-23 11:59 23.40613 123.13373 38833 ft 493 kts 50°
2026-04-23 12:00 23.44502 123.19519 38832 ft 493 kts 50°
2026-04-23 12:00 23.48392 123.25673 38831 ft 493 kts 50°
2026-04-23 12:01 23.52284 123.31836 38833 ft 494 kts 50°
2026-04-23 12:01 23.56172 123.38003 38834 ft 494 kts 50°
2026-04-23 12:02 23.60066 123.44186 38832 ft 495 kts 50°
2026-04-23 12:02 23.63960 123.50377 38832 ft 495 kts 50°
2026-04-23 12:03 23.67853 123.56573 38831 ft 496 kts 50°
2026-04-23 12:03 23.71754 123.62789 38831 ft 497 kts 50°
2026-04-23 12:04 23.75631 123.68975 38833 ft 497 kts 50°
2026-04-23 12:04 23.79534 123.75211 38830 ft 497 kts 50°
2026-04-23 12:05 23.83437 123.81453 38830 ft 499 kts 52°
2026-04-23 12:05 23.87357 123.87732 38832 ft 501 kts 52°
2026-04-23 12:06 23.91278 123.94019 38832 ft 501 kts 52°
2026-04-23 12:06 23.97237 124.03387 38832 ft 500 kts 51°
2026-04-23 12:07 24.01251 124.09586 38836 ft 500 kts 51°
2026-04-23 12:07 24.05269 124.15804 38831 ft 500 kts 51°
2026-04-23 12:08 24.09282 124.22022 38831 ft 500 kts 51°
2026-04-23 12:08 24.13296 124.28250 38833 ft 501 kts 51°
2026-04-23 12:09 24.17306 124.34481 38831 ft 500 kts 51°
2026-04-23 12:09 24.21315 124.40717 38834 ft 501 kts 51°
2026-04-23 12:10 24.25327 124.46965 38831 ft 501 kts 51°
2026-04-23 12:10 24.29338 124.53222 38833 ft 501 kts 51°
2026-04-23 12:11 24.33349 124.59484 38834 ft 502 kts 51°
2026-04-23 12:11 24.37355 124.65748 38831 ft 502 kts 51°
2026-04-23 12:12 24.41367 124.72028 38832 ft 502 kts 51°
2026-04-23 12:12 24.45373 124.78309 38831 ft 502 kts 51°
2026-04-23 12:13 24.49380 124.84597 38834 ft 503 kts 50°
2026-04-23 12:13 24.53362 124.90855 38831 ft 503 kts 50°
2026-04-23 12:14 24.57366 124.97157 38833 ft 503 kts 50°
2026-04-23 12:14 24.61366 125.03458 38856 ft 503 kts 50°
2026-04-23 12:15 24.65395 125.09812 38856 ft 503 kts 50°
2026-04-23 12:15 24.69365 125.16086 38862 ft 504 kts 50°
2026-04-23 12:16 24.73359 125.22402 38857 ft 503 kts 50°
2026-04-23 12:16 24.77339 125.28730 38857 ft 504 kts 53°
2026-04-23 12:17 24.81029 125.35309 38860 ft 506 kts 53°
2026-04-23 12:17 24.84753 125.41880 38861 ft 505 kts 53°
2026-04-23 12:18 24.88474 125.48439 38863 ft 505 kts 53°
2026-04-23 12:18 24.92197 125.55012 38857 ft 505 kts 53°
2026-04-23 12:19 24.95915 125.61585 38861 ft 506 kts 53°
2026-04-23 12:19 24.99637 125.68174 38857 ft 506 kts 53°
2026-04-23 12:20 25.03358 125.74771 38860 ft 507 kts 53°
2026-04-23 12:20 25.07082 125.81381 38860 ft 508 kts 53°
2026-04-23 12:21 25.10808 125.88005 38861 ft 509 kts 53°
2026-04-23 12:21 25.14537 125.94643 38856 ft 509 kts 53°
2026-04-23 12:22 25.18265 126.01289 38857 ft 509 kts 53°
2026-04-23 12:22 25.21986 126.07931 38857 ft 507 kts 52°
2026-04-23 12:23 25.25697 126.14565 38863 ft 508 kts 53°
2026-04-23 12:23 25.29413 126.21218 38859 ft 509 kts 53°
2026-04-23 12:24 25.33129 126.27881 38860 ft 509 kts 52°
2026-04-23 12:24 25.36845 126.34550 38862 ft 510 kts 53°
2026-04-23 12:25 25.40560 126.41229 38862 ft 510 kts 53°
2026-04-23 12:25 25.44275 126.47916 38857 ft 510 kts 53°
2026-04-23 12:26 25.47981 126.54608 38857 ft 510 kts 53°
2026-04-23 12:26 25.51647 126.61280 38862 ft 511 kts 53°
2026-04-23 12:27 25.55364 126.68046 38860 ft 510 kts 53°
2026-04-23 12:27 25.59024 126.74716 38860 ft 510 kts 53°
2026-04-23 12:28 25.62710 126.81447 38861 ft 510 kts 53°
2026-04-23 12:28 25.66387 126.88170 38859 ft 510 kts 53°
2026-04-23 12:29 25.70060 126.94896 38863 ft 510 kts 53°
2026-04-23 12:29 25.73731 127.01630 38863 ft 510 kts 53°
2026-04-23 12:30 25.77396 127.08363 38861 ft 510 kts 53°
2026-04-23 12:30 25.81066 127.15114 38861 ft 511 kts 53°
2026-04-23 12:31 25.84732 127.21867 38858 ft 511 kts 53°
2026-04-23 12:31 25.88398 127.28632 38865 ft 512 kts 53°
2026-04-23 12:32 25.92016 127.35321 38862 ft 512 kts 53°
2026-04-23 12:32 25.95683 127.42110 38861 ft 512 kts 53°
2026-04-23 12:33 25.99311 127.48839 38858 ft 513 kts 53°
2026-04-23 12:33 26.02984 127.55661 38858 ft 516 kts 53°
2026-04-23 12:34 26.06668 127.62516 38858 ft 516 kts 53°
2026-04-23 12:34 26.10351 127.69376 38860 ft 516 kts 53°
2026-04-23 12:35 26.14030 127.76238 38859 ft 516 kts 53°
2026-04-23 12:35 26.16008 127.79533 38828 ft 506 kts 41°
2026-04-23 12:35 26.18507 127.82171 38893 ft 490 kts 31°
2026-04-23 12:36 26.23718 127.87157 38863 ft 494 kts 32°
2026-04-23 12:36 26.28982 127.92108 38877 ft 495 kts 31°
2026-04-23 12:37 26.34247 127.97031 38881 ft 494 kts 31°
2026-04-23 12:37 26.39518 128.01963 38876 ft 495 kts 31°
2026-04-23 12:38 26.44786 128.06900 38868 ft 495 kts 31°
2026-04-23 12:38 26.50060 128.11847 38870 ft 495 kts 31°
2026-04-23 12:39 26.55332 128.16799 38868 ft 495 kts 31°
2026-04-23 12:39 26.60603 128.21757 38873 ft 496 kts 31°
2026-04-23 12:40 26.65847 128.26695 38859 ft 496 kts 31°
2026-04-23 12:40 26.71157 128.31701 38859 ft 496 kts 31°
2026-04-23 12:41 26.76407 128.36657 38851 ft 497 kts 31°
2026-04-23 12:41 26.81690 128.41651 38840 ft 498 kts 31°
2026-04-23 12:42 26.86978 128.46655 38833 ft 498 kts 31°
2026-04-23 12:42 26.92268 128.51668 38833 ft 498 kts 31°
2026-04-23 12:43 26.96702 128.55876 38832 ft 499 kts 31°
2026-04-23 12:43 27.01999 128.60907 38833 ft 499 kts 31°
2026-04-23 12:44 27.07266 128.65916 38831 ft 499 kts 31°
2026-04-23 12:44 27.12567 128.70964 38832 ft 500 kts 31°
2026-04-23 12:45 27.17869 128.76019 38831 ft 500 kts 30°
2026-04-23 12:45 27.23167 128.81078 38832 ft 500 kts 30°
2026-04-23 12:46 27.28469 128.86146 38832 ft 500 kts 30°
2026-04-23 12:46 27.33776 128.91226 38831 ft 501 kts 30°
2026-04-23 12:47 27.39077 128.96306 38832 ft 501 kts 30°
2026-04-23 12:47 27.44385 129.01400 38831 ft 501 kts 30°
2026-04-23 12:48 27.49693 129.06498 38832 ft 501 kts 30°
2026-04-23 12:48 27.54752 129.11987 38834 ft 516 kts 43°
2026-04-23 12:49 27.59324 129.18219 38818 ft 516 kts 41°
2026-04-23 12:49 27.63913 129.24458 38834 ft 517 kts 41°
2026-04-23 12:50 27.68499 129.30706 38833 ft 517 kts 41°
2026-04-23 12:50 27.73058 129.36926 38831 ft 518 kts 41°
2026-04-23 12:51 27.77649 129.43199 38831 ft 518 kts 41°
2026-04-23 12:51 27.82271 129.49524 38833 ft 519 kts 41°
2026-04-23 12:52 27.86866 129.55819 38830 ft 520 kts 41°
2026-04-23 12:52 27.91435 129.62089 38832 ft 520 kts 41°
2026-04-23 12:53 27.96036 129.68412 38832 ft 521 kts 41°
2026-04-23 12:53 28.00632 129.74739 38832 ft 521 kts 41°
2026-04-23 12:54 28.05230 129.81077 38834 ft 521 kts 41°
2026-04-23 12:54 28.09830 129.87427 38832 ft 521 kts 41°
2026-04-23 12:55 28.14427 129.93783 38830 ft 521 kts 41°
2026-04-23 12:55 28.19021 130.00143 38833 ft 521 kts 41°
2026-04-23 12:56 28.23612 130.06509 38832 ft 522 kts 41°
2026-04-23 12:56 28.28200 130.12881 38832 ft 522 kts 41°
2026-04-23 12:57 28.32785 130.19259 38832 ft 522 kts 41°
2026-04-23 12:57 28.37370 130.25646 38833 ft 521 kts 41°
2026-04-23 12:58 28.41949 130.32034 38833 ft 521 kts 41°
2026-04-23 12:58 28.46520 130.38420 38831 ft 521 kts 41°
2026-04-23 12:59 28.51088 130.44811 38832 ft 521 kts 41°
2026-04-23 12:59 28.55659 130.51218 38827 ft 522 kts 41°
2026-04-23 13:00 28.60227 130.57630 38824 ft 521 kts 41°
2026-04-23 13:00 28.64790 130.64044 38822 ft 521 kts 41°
2026-04-23 13:01 28.69323 130.70425 38823 ft 521 kts 41°
2026-04-23 13:01 28.73881 130.76853 38823 ft 521 kts 41°
2026-04-23 13:02 28.78435 130.83284 38824 ft 520 kts 41°
2026-04-23 13:02 28.82972 130.89702 38821 ft 519 kts 41°
2026-04-23 13:03 28.87504 130.96121 38812 ft 519 kts 41°
2026-04-23 13:03 28.92032 131.02545 38814 ft 519 kts 42°
2026-04-23 13:04 28.96555 131.08973 38813 ft 519 kts 42°
2026-04-23 13:04 29.01080 131.15413 38814 ft 519 kts 42°
2026-04-23 13:05 29.05598 131.21852 38811 ft 519 kts 42°
2026-04-23 13:05 29.10113 131.28298 38805 ft 519 kts 42°
2026-04-23 13:06 29.16877 131.37973 38796 ft 519 kts 41°
2026-04-23 13:07 29.21373 131.44418 38793 ft 518 kts 41°
2026-04-23 13:07 29.25869 131.50870 38801 ft 518 kts 41°
2026-04-23 13:08 29.30363 131.57331 38801 ft 518 kts 42°
2026-04-23 13:08 29.34846 131.63789 38793 ft 517 kts 42°
2026-04-23 13:09 29.39332 131.70259 38797 ft 518 kts 42°
2026-04-23 13:09 29.43820 131.76737 38795 ft 518 kts 42°
2026-04-23 13:10 29.48263 131.83166 38798 ft 517 kts 42°
2026-04-23 13:10 29.52737 131.89643 38790 ft 517 kts 42°
2026-04-23 13:11 29.57201 131.96123 38796 ft 517 kts 41°
2026-04-23 13:11 29.61660 132.02602 38789 ft 517 kts 42°
2026-04-23 13:12 29.66142 132.09040 38785 ft 514 kts 40°
2026-04-23 13:12 29.70693 132.15398 38781 ft 515 kts 40°
2026-04-23 13:13 29.75230 132.21765 38795 ft 515 kts 41°
2026-04-23 13:13 29.79768 132.28145 38786 ft 514 kts 41°
2026-04-23 13:14 29.84300 132.34525 38786 ft 515 kts 41°
2026-04-23 13:14 29.88831 132.40915 38803 ft 515 kts 41°
2026-04-23 13:15 29.93357 132.47308 38804 ft 515 kts 41°
2026-04-23 13:15 29.97888 132.53718 38805 ft 515 kts 41°
2026-04-23 13:16 30.02411 132.60125 38800 ft 516 kts 41°
2026-04-23 13:16 30.06946 132.66560 38804 ft 517 kts 41°
2026-04-23 13:17 30.11486 132.73015 38805 ft 518 kts 41°
2026-04-23 13:17 30.16028 132.79483 38802 ft 518 kts 42°
2026-04-23 13:18 30.20564 132.85952 38796 ft 518 kts 42°
2026-04-23 13:18 30.25097 132.92426 38798 ft 518 kts 43°
2026-04-23 13:19 30.29629 132.98910 38799 ft 518 kts 43°
2026-04-23 13:19 30.34121 133.05348 38791 ft 518 kts 43°
2026-04-23 13:20 30.38648 133.11845 38794 ft 518 kts 43°
2026-04-23 13:20 30.43169 133.18346 38798 ft 518 kts 43°
2026-04-23 13:21 30.47684 133.24848 38796 ft 518 kts 44°
2026-04-23 13:21 30.52194 133.31354 38796 ft 518 kts 44°
2026-04-23 13:22 30.56700 133.37865 38796 ft 517 kts 44°
2026-04-23 13:22 30.61204 133.44382 38798 ft 518 kts 44°
2026-04-23 13:23 30.65713 133.50919 38792 ft 518 kts 44°
2026-04-23 13:23 30.70217 133.57458 38793 ft 518 kts 44°
2026-04-23 13:24 30.74708 133.63987 38784 ft 518 kts 44°
2026-04-23 13:24 30.79200 133.70529 38790 ft 517 kts 44°
2026-04-23 13:25 30.83685 133.77073 38793 ft 518 kts 44°
2026-04-23 13:25 30.88179 133.83635 38793 ft 519 kts 44°
2026-04-23 13:26 30.92669 133.90203 38787 ft 518 kts 44°
2026-04-23 13:26 30.97132 133.96741 38761 ft 519 kts 44°
2026-04-23 13:27 31.01618 134.03324 38762 ft 519 kts 45°
2026-04-23 13:27 31.06054 134.09958 38759 ft 521 kts 50°
2026-04-23 13:28 31.10195 134.16908 38760 ft 521 kts 49°
2026-04-23 13:28 31.14371 134.23807 38774 ft 521 kts 49°
2026-04-23 13:29 31.18553 134.30716 38776 ft 521 kts 49°
2026-04-23 13:29 31.22736 134.37638 38761 ft 521 kts 49°
2026-04-23 13:30 31.26913 134.44561 38757 ft 521 kts 49°
2026-04-23 13:30 31.31088 134.51496 38760 ft 522 kts 49°
2026-04-23 13:31 31.35258 134.58433 38757 ft 521 kts 49°
2026-04-23 13:31 31.38721 134.64204 38757 ft 521 kts 49°
2026-04-23 13:32 31.42884 134.71153 38760 ft 522 kts 50°
2026-04-23 13:32 31.47047 134.78114 38757 ft 522 kts 50°
2026-04-23 13:33 31.51209 134.85085 38759 ft 522 kts 50°
2026-04-23 13:33 31.55370 134.92068 38758 ft 522 kts 50°
2026-04-23 13:34 31.59523 134.99048 38756 ft 522 kts 50°
2026-04-23 13:34 31.63671 135.06036 38756 ft 522 kts 50°
2026-04-23 13:35 31.67814 135.13025 38756 ft 521 kts 50°
2026-04-23 13:35 31.71951 135.20019 38757 ft 521 kts 50°
2026-04-23 13:36 31.76081 135.27012 38757 ft 521 kts 51°
2026-04-23 13:36 31.80214 135.34022 38760 ft 522 kts 50°
2026-04-23 13:37 31.84334 135.41025 38767 ft 521 kts 51°
2026-04-23 13:37 31.88454 135.48041 38752 ft 521 kts 51°
2026-04-23 13:38 31.92570 135.55060 38759 ft 521 kts 51°
2026-04-23 13:38 31.96681 135.62086 38752 ft 521 kts 51°
2026-04-23 13:39 32.00794 135.69127 38760 ft 521 kts 51°
2026-04-23 13:39 32.04871 135.76121 38775 ft 522 kts 51°
2026-04-23 13:40 32.08999 135.83214 38781 ft 521 kts 52°
2026-04-23 13:40 32.13097 135.90268 38763 ft 521 kts 52°
2026-04-23 13:41 32.17192 135.97331 38762 ft 521 kts 52°
2026-04-23 13:41 32.21254 136.04349 38759 ft 521 kts 52°
2026-04-23 13:42 32.25338 136.11420 38774 ft 521 kts 52°
2026-04-23 13:42 32.29423 136.18505 38776 ft 521 kts 52°
2026-04-23 13:43 32.33502 136.25592 38763 ft 521 kts 52°
2026-04-23 13:43 32.37577 136.32688 38765 ft 522 kts 52°
2026-04-23 13:44 32.41661 136.39810 38776 ft 523 kts 52°
2026-04-23 13:44 32.45739 136.46936 38777 ft 523 kts 52°
2026-04-23 13:45 32.49812 136.54067 38762 ft 523 kts 52°
2026-04-23 13:45 32.53888 136.61217 38773 ft 524 kts 52°
2026-04-23 13:46 32.57959 136.68371 38773 ft 524 kts 52°
2026-04-23 13:46 32.62027 136.75535 38763 ft 524 kts 52°
2026-04-23 13:47 32.66099 136.82718 38761 ft 525 kts 52°
2026-04-23 13:47 32.70171 136.89915 38758 ft 525 kts 52°
2026-04-23 13:48 32.74243 136.97126 38757 ft 525 kts 52°
2026-04-23 13:48 32.78306 137.04335 38757 ft 525 kts 52°
2026-04-23 13:49 32.82369 137.11559 38759 ft 526 kts 52°
2026-04-23 13:49 32.86435 137.18800 38758 ft 526 kts 52°
2026-04-23 13:50 32.90466 137.25995 38773 ft 526 kts 53°
2026-04-23 13:50 32.94551 137.33299 38798 ft 528 kts 53°
2026-04-23 13:51 32.98612 137.40576 38784 ft 527 kts 53°
2026-04-23 13:51 33.02671 137.47861 38785 ft 528 kts 53°
2026-04-23 13:52 33.06701 137.55111 38791 ft 529 kts 53°
2026-04-23 13:52 33.10755 137.62417 38785 ft 529 kts 53°
2026-04-23 13:53 33.14818 137.69753 38793 ft 530 kts 53°
2026-04-23 13:53 33.18876 137.77098 38784 ft 531 kts 53°
2026-04-23 13:54 33.22941 137.84467 38785 ft 531 kts 53°
2026-04-23 13:54 33.27004 137.91847 38786 ft 532 kts 53°
2026-04-23 13:55 33.31071 137.99250 38783 ft 533 kts 53°
2026-04-23 13:55 33.35136 138.06666 38782 ft 535 kts 53°
2026-04-23 13:56 33.39214 138.14119 38786 ft 535 kts 53°
2026-04-23 13:56 33.43285 138.21573 38793 ft 535 kts 54°
2026-04-23 13:57 33.47355 138.29043 38813 ft 536 kts 54°
2026-04-23 13:57 33.51426 138.36528 38815 ft 536 kts 54°
2026-04-23 13:58 33.55493 138.44023 38814 ft 536 kts 54°
2026-04-23 13:58 33.59555 138.51521 38814 ft 536 kts 54°
2026-04-23 13:59 33.63612 138.59028 38813 ft 536 kts 54°
2026-04-23 13:59 33.67666 138.66545 38811 ft 536 kts 54°
2026-04-23 14:00 33.71027 138.72788 38812 ft 536 kts 54°
2026-04-23 14:00 33.75755 138.81588 38812 ft 536 kts 53°
2026-04-23 14:01 33.79774 138.89086 38814 ft 537 kts 54°
2026-04-23 14:01 33.83811 138.96632 38813 ft 536 kts 53°
2026-04-23 14:02 33.87842 139.04185 38814 ft 537 kts 53°
2026-04-23 14:02 33.91873 139.11752 38813 ft 537 kts 53°
2026-04-23 14:03 33.95899 139.19325 38824 ft 537 kts 53°
2026-04-23 14:03 33.99917 139.26902 38821 ft 537 kts 53°
2026-04-23 14:04 34.03940 139.34501 38828 ft 538 kts 54°
2026-04-23 14:04 34.07966 139.42122 38823 ft 539 kts 54°
2026-04-23 14:05 34.11988 139.49754 38847 ft 539 kts 54°
2026-04-23 14:05 34.16001 139.57381 38897 ft 540 kts 54°
2026-04-23 14:06 34.20026 139.65050 38905 ft 539 kts 53°
2026-04-23 14:06 34.24041 139.72716 38908 ft 540 kts 53°
2026-04-23 14:07 34.28050 139.80388 38900 ft 540 kts 53°
2026-04-23 14:07 34.34056 139.91910 38888 ft 539 kts 54°
2026-04-23 14:08 34.38053 139.99600 38893 ft 540 kts 54°
2026-04-23 14:08 34.42024 140.07256 38896 ft 539 kts 54°
2026-04-23 14:09 34.45477 140.13926 38897 ft 540 kts 54°
2026-04-23 14:09 34.49456 140.21627 38839 ft 538 kts 54°
2026-04-23 14:10 34.51446 140.25485 37747 ft 546 kts 54°
2026-04-23 14:10 34.53441 140.29358 37171 ft 542 kts 54°
2026-04-23 14:10 34.55416 140.33197 36785 ft 533 kts 55°
2026-04-23 14:10 34.57384 140.37023 36174 ft 531 kts 55°
2026-04-23 14:11 34.59333 140.40819 35478 ft 530 kts 55°
2026-04-23 14:11 34.61283 140.44619 34784 ft 529 kts 56°
2026-04-23 14:11 34.63221 140.48403 34234 ft 525 kts 56°
2026-04-23 14:11 34.65137 140.52146 33623 ft 519 kts 56°
2026-04-23 14:12 34.67037 140.55860 32727 ft 516 kts 56°
2026-04-23 14:12 34.68923 140.59545 31963 ft 511 kts 55°
2026-04-23 14:12 34.71095 140.62892 31251 ft 498 kts 40°
2026-04-23 14:12 34.73747 140.65479 30572 ft 482 kts 26°
2026-04-23 14:13 34.76673 140.67334 29888 ft 466 kts 14°
2026-04-23 14:13 34.79735 140.68358 29184 ft 448 kts
2026-04-23 14:13 34.82792 140.68850 28454 ft 441 kts 359°
2026-04-23 14:13 34.85837 140.69275 27636 ft 439 kts 358°
2026-04-23 14:14 34.88852 140.69665 26983 ft 433 kts 357°
2026-04-23 14:14 34.91814 140.70010 26506 ft 422 kts 356°
2026-04-23 14:14 34.94707 140.70334 26038 ft 413 kts 356°
2026-04-23 14:14 34.97539 140.70670 25555 ft 405 kts 356°
2026-04-23 14:15 35.00303 140.71006 25082 ft 408 kts 357°
2026-04-23 14:15 35.03153 140.71359 24578 ft 413 kts 357°
2026-04-23 14:15 35.06018 140.71774 24064 ft 420 kts
2026-04-23 14:15 35.08823 140.72980 23512 ft 436 kts 22°
2026-04-23 14:16 35.11392 140.74985 23102 ft 437 kts 28°
2026-04-23 14:16 35.13915 140.77042 22651 ft 435 kts 28°
2026-04-23 14:16 35.16422 140.79106 22155 ft 434 kts 29°
2026-04-23 14:16 35.18915 140.81172 21676 ft 433 kts 29°
2026-04-23 14:17 35.21400 140.83236 21205 ft 431 kts 29°
2026-04-23 14:17 35.23874 140.85293 20738 ft 429 kts 29°
2026-04-23 14:17 35.26336 140.87341 20269 ft 427 kts 30°
2026-04-23 14:17 35.28782 140.89379 19806 ft 425 kts 30°
2026-04-23 14:18 35.31216 140.91407 19331 ft 422 kts 30°
2026-04-23 14:18 35.33639 140.93428 18882 ft 420 kts 30°
2026-04-23 14:18 35.35232 140.94757 18577 ft 418 kts 30°
2026-04-23 14:18 35.37630 140.96760 18121 ft 416 kts 30°
2026-04-23 14:19 35.40008 140.98747 17671 ft 413 kts 30°
2026-04-23 14:19 35.42372 141.00725 17209 ft 410 kts 30°
2026-04-23 14:19 35.44722 141.02691 16770 ft 407 kts 31°
2026-04-23 14:19 35.47056 141.04644 16326 ft 404 kts 30°
2026-04-23 14:20 35.49538 141.06146 15820 ft 393 kts 11°
2026-04-23 14:20 35.52181 141.06534 15453 ft 375 kts 351°
2026-04-23 14:20 35.54736 141.06153 15065 ft 367 kts 346°
2026-04-23 14:20 35.57252 141.05711 14668 ft 363 kts 346°
2026-04-23 14:21 35.59742 141.05252 14275 ft 360 kts 346°
2026-04-23 14:21 35.62993 141.04631 13737 ft 355 kts 345°
2026-04-23 14:21 35.64636 141.04313 13496 ft 352 kts 346°
2026-04-23 14:21 35.67041 141.03842 13169 ft 347 kts 346°
2026-04-23 14:22 35.69416 141.03376 12798 ft 344 kts 346°
2026-04-23 14:22 35.71770 141.02914 12406 ft 341 kts 346°
2026-04-23 14:22 35.74101 141.02412 12014 ft 336 kts 340°
2026-04-23 14:22 35.76145 141.01175 11578 ft 323 kts 316°
2026-04-23 14:23 35.77583 140.99133 11226 ft 311 kts 297°
2026-04-23 14:23 35.78704 140.96890 10925 ft 306 kts 297°
2026-04-23 14:23 35.79794 140.94658 10609 ft 302 kts 297°
2026-04-23 14:23 35.80848 140.92462 10439 ft 293 kts 297°
2026-04-23 14:24 35.81846 140.90358 10295 ft 284 kts 297°
2026-04-23 14:24 35.82821 140.88286 10174 ft 275 kts 296°
2026-04-23 14:24 35.83761 140.86276 10021 ft 267 kts 297°
2026-04-23 14:24 35.84689 140.84289 9751 ft 270 kts 297°
2026-04-23 14:25 35.85637 140.82256 9440 ft 276 kts 297°
2026-04-23 14:25 35.86599 140.80191 9127 ft 279 kts 298°
2026-04-23 14:25 35.87570 140.78105 8815 ft 281 kts 298°
2026-04-23 14:25 35.88544 140.76009 8504 ft 282 kts 298°
2026-04-23 14:26 35.89520 140.73909 8193 ft 281 kts 298°
2026-04-23 14:26 35.90489 140.71821 7883 ft 280 kts 298°
2026-04-23 14:26 35.91454 140.69742 7573 ft 278 kts 298°
2026-04-23 14:26 35.92411 140.67679 7268 ft 276 kts 299°
2026-04-23 14:27 35.93363 140.65626 6966 ft 275 kts 299°
2026-04-23 14:27 35.94309 140.63585 6666 ft 273 kts 299°
2026-04-23 14:27 35.95247 140.61557 6360 ft 271 kts 299°
2026-04-23 14:27 35.96182 140.59537 6062 ft 270 kts 299°
2026-04-23 14:28 35.97109 140.57532 5764 ft 268 kts 299°
2026-04-23 14:28 35.97946 140.55487 5444 ft 267 kts 286°
2026-04-23 14:28 35.98462 140.53296 5147 ft 265 kts 290°
2026-04-23 14:28 35.99122 140.51212 4875 ft 256 kts 292°
2026-04-23 14:29 35.99773 140.49218 4612 ft 245 kts 292°
2026-04-23 14:29 36.00393 140.47298 4345 ft 235 kts 292°
2026-04-23 14:29 36.00952 140.45445 4085 ft 225 kts 286°
2026-04-23 14:29 36.01145 140.43550 3782 ft 220 kts 277°
2026-04-23 14:30 36.01231 140.41697 3562 ft 213 kts 268°
2026-04-23 14:30 36.01094 140.39917 3363 ft 204 kts 263°
2026-04-23 14:30 36.00758 140.38274 3152 ft 198 kts 252°
2026-04-23 14:30 36.00313 140.36658 3027 ft 200 kts 252°
2026-04-23 14:31 35.99813 140.35078 2991 ft 198 kts 246°
2026-04-23 14:31 35.99231 140.33549 2999 ft 198 kts 245°
2026-04-23 14:31 35.98630 140.32011 3016 ft 199 kts 245°
2026-04-23 14:31 35.98032 140.30485 3007 ft 192 kts 245°
2026-04-23 14:32 35.97447 140.29024 3079 ft 190 kts 242°
2026-04-23 14:32 35.96569 140.27872 2974 ft 186 kts 207°
2026-04-23 14:32 35.95334 140.27604 2939 ft 181 kts 167°
2026-04-23 14:32 35.94138 140.28090 3036 ft 182 kts 153°
2026-04-23 14:33 35.92998 140.28796 2895 ft 184 kts 148°
2026-04-23 14:33 35.91890 140.29565 2671 ft 182 kts 147°
2026-04-23 14:33 35.90818 140.30336 2474 ft 173 kts 146°
2026-04-23 14:33 35.89822 140.31062 2250 ft 169 kts 146°
2026-04-23 14:34 35.88781 140.31820 2027 ft 170 kts 146°
2026-04-23 14:34 35.87762 140.32562 1820 ft 170 kts 146°
2026-04-23 14:34 35.86792 140.33259 1591 ft 153 kts 146°
2026-04-23 14:34 35.85911 140.33895 1432 ft 142 kts 146°
2026-04-23 14:35 35.85063 140.34515 1206 ft 140 kts 145°
2026-04-23 14:35 35.84222 140.35124 1024 ft 140 kts 146°
2026-04-23 14:35 35.83378 140.35740 828 ft 141 kts 146°
2026-04-23 14:35 35.82540 140.36347 646 ft 139 kts 146°
2026-04-23 14:36 35.81704 140.36944 427 ft 138 kts 146°
2026-04-23 14:36 35.80880 140.37546 279 ft 136 kts 146°
2026-04-23 14:36 35.80067 140.38129 157 ft 130 kts 143°
2026-04-23 14:36 35.79417 140.38608 147 ft 76 kts 149°
2026-04-23 14:37 35.79066 140.38860 147 ft 41 kts 152°
2026-04-23 14:37 35.78898 140.38933 144 ft 22 kts 174°
2026-04-23 14:37 35.78738 140.38952 146 ft 24 kts 174°
2026-04-23 14:37 35.78574 140.38979 146 ft 22 kts 153°
2026-04-23 14:38 35.78460 140.39101 146 ft 21 kts 143°
2026-04-23 14:38 35.78316 140.39155 146 ft 22 kts 166°
2026-04-23 14:38 35.78173 140.39198 146 ft 17 kts 175°
2026-04-23 14:38 35.78111 140.39132 146 ft 11 kts 239°
2026-04-23 14:39 35.78067 140.39045 146 ft 13 kts 234°
2026-04-23 14:39 35.78022 140.39032 146 ft 8 kts 158°
2026-04-23 14:39 35.77931 140.39093 146 ft 18 kts 165°
2026-04-23 14:39 35.77872 140.39051 146 ft 8 kts 242°
2026-04-23 14:40 35.77832 140.38966 146 ft 15 kts 239°
2026-04-23 14:40 35.77753 140.38916 146 ft 17 kts 156°
2026-04-23 14:40 35.77636 140.38997 146 ft 20 kts 148°
2026-04-23 14:40 35.77563 140.39062 146 ft 5 kts 97°
2026-04-23 14:41 35.77582 140.39092 146 ft 9 kts 43°
2026-04-23 14:41 35.77602 140.39130 146 ft 0 kts 60°